DW5868 Weather Reports


time (UTC)temp
F
wind
direction
speed
knots
gust
knots
rain 1hr
in
rain 24hr
in
rain mn
in
humidity
%
barometer
mb
20260905014524 50 229 6.1 16.5 0.00 0.00 0.00 72 1007.2
20260905013024 51 199 4.3 13.0 0.00 0.00 0.00 70 1007.2
20260905011523 51 202 7.0 14.8 0.00 0.00 0.00 68 1007.2
20260905010021 53 289 4.3 10.4 0.00 0.00 0.00 65 1007.2
20260905004521 53 277 3.5 13.0 0.00 0.00 0.00 65 1007.0
20260905003021 55 234 4.3 20.0 0.00 0.00 0.00 62 1006.9
20260905001519 55 277 4.3 16.5 0.00 0.00 0.00 61 1006.9
20260905000019 56 278 4.3 14.8 0.00 0.00 0.00 60 1006.8
20260904234520 56 283 4.3 17.4 0.00 0.00 0.00 59 1007.0
20260904233018 56 202 7.0 17.4 0.00 0.00 0.00 57 1006.8
20260904231518 57 229 5.2 15.6 0.00 0.00 0.00 56 1006.7
20260904230019 58 232 3.5 19.1 0.00 0.00 0.00 55 1006.8
20260904224517 58 271 4.3 16.5 0.00 0.00 0.00 54 1006.8
20260904223017 58 250 4.3 12.2 0.00 0.00 0.00 54 1006.8
20260904221519 57 232 8.7 20.0 0.00 0.00 0.00 54 1007.0
20260904220018 58 258 8.7 20.0 0.00 0.00 0.00 52 1006.9
20260904214518 58 214 3.5 10.4 0.00 0.00 0.00 53 1006.8
20260904213017 57 260 8.7 26.1 0.00 0.00 0.00 51 1006.9
20260904211514 58 237 6.1 23.5 0.00 0.00 0.00 51 1006.7
20260904210016 58 157 3.5 13.9 0.00 0.00 0.00 49 1006.4
20260904204517 58 166 5.2 12.2 0.00 0.00 0.00 48 1006.1
20260904203018 58 214 5.2 17.4 0.00 0.00 0.00 49 1006.3
20260904201512 58 259 6.1 20.9 0.00 0.00 0.00 48 1006.2
20260904200012 58 302 2.6 15.6 0.00 0.00 0.00 50 1006.2
20260904194511 58 269 7.0 15.6 0.00 0.00 0.00 47 1006.1
20260904193011 58 132 2.6 19.1 0.00 0.00 0.00 50 1006.1
20260904191509 58 219 3.5 13.9 0.00 0.00 0.00 47 1006.0
20260904190009 57 294 7.8 18.2 0.00 0.00 0.00 47 1006.0
20260904184517 57 267 3.5 16.5 0.00 0.00 0.00 48 1006.1
20260904183006 56 290 7.8 20.0 0.00 0.00 0.00 49 1006.1
20260904181517 56 206 6.1 16.5 0.00 0.00 0.00 49 1006.0
20260904180002 56 260 3.5 17.4 0.00 0.00 0.00 51 1005.9
20260904174502 56 259 7.8 17.4 0.00 0.00 0.00 48 1005.7
20260904173001 56 227 4.3 13.0 0.00 0.00 0.00 49 1005.7
20260904171620 55 271 5.2 17.4 0.00 0.00 0.00 45 1005.7
20260904171501 55 244 6.1 17.4 0.00 0.00 0.00 48 1005.6
20260904170058 55 253 2.6 30.4 0.00 0.00 0.00 43 1005.3
20260904164614 53 269 7.8 25.2 0.00 0.00 0.00 48 1005.5
20260904163054 53 245 5.2 16.5 0.00 0.00 0.00 50 1005.5
20260904161559 52 275 7.8 21.7 0.00 0.00 0.00 56 1005.6
20260904160051 50 232 7.0 15.6 0.00 0.00 0.00 56 1005.4
20260904154551 49 259 4.3 17.4 0.00 0.00 0.00 63 1005.6
20260904153055 48 252 4.3 18.2 0.00 0.00 0.00 64 1005.4
20260904151549 48 183 8.7 26.9 0.00 0.00 0.00 65 1005.5
20260904150045 47 275 7.8 21.7 0.00 0.00 0.00 65 1005.2
20260904144544 47 303 8.7 18.2 0.00 0.00 0.00 63 1004.8
20260904143041 46 269 7.8 22.6 0.00 0.00 0.00 65 1004.5
20260904141538 46 244 5.2 19.1 0.00 0.00 0.00 66 1004.4
20260904140038 0 0.0 0.0 0.00 0.00 0.00 1003.9
20260904134537 0 0.0 0.0 0.00 0.00 0.00 1004.4
20260904133034 0 0.0 0.0 0.00 0.00 0.00 1004.0
20260904131524 0 0.0 0.0 0.00 0.00 0.00 1004.1
20260904130020 0 0.0 0.0 0.00 0.00 0.00 1004.0
20260904124516 0 0.0 0.0 0.00 0.00 0.00 1003.8
20260904123010 0 0.0 0.0 0.00 0.00 0.00 1004.1
20260904121508 0 0.0 0.0 0.00 0.00 0.00 1004.3
20260904120004 0 0.0 0.0 0.00 0.00 0.00 1004.6
20260904114502 44 211 7.8 19.1 0.00 0.00 0.00 68 1004.9
20260904113002 44 282 6.1 17.4 0.00 0.00 0.00 72 1004.7
20260904111503 45 280 6.1 24.3 0.00 0.00 0.00 69 1004.8
20260904110100 45 245 7.8 15.6 0.00 0.00 0.00 68 1004.6
20260904104613 45 279 4.3 15.6 0.00 0.00 0.00 68 1004.7
20260904103100 45 280 4.3 15.6 0.00 0.00 0.00 70 1004.7
20260904101558 45 226 3.5 15.6 0.00 0.00 0.00 71 1004.6
20260904100114 45 233 5.2 14.8 0.00 0.00 0.00 71 1004.8
20260904094605 45 325 4.3 14.8 0.00 0.00 0.00 72 1005.0
20260904093058 45 238 4.3 13.9 0.00 0.00 0.00 72 1004.9
20260904091552 45 257 3.5 11.3 0.00 0.00 0.00 70 1004.9
20260904090051 45 171 4.3 21.7 0.00 0.00 0.00 71 1005.1
20260904084550 45 267 6.1 19.1 0.00 0.00 0.00 70 1005.1
20260904083050 45 283 3.5 13.9 0.00 0.00 0.00 70 1005.4
20260904081546 45 320 4.3 10.4 0.00 0.00 0.00 68 1005.5
20260904080042 45 249 3.5 14.8 0.00 0.00 0.00 69 1005.5
20260904074540 45 55 3.5 14.8 0.00 0.00 0.00 70 1005.5
20260904073038 44 246 5.2 15.6 0.00 0.00 0.00 70 1005.7
20260904071538 44 190 3.5 15.6 0.00 0.00 0.00 70 1005.7
20260904070042 45 275 3.5 20.0 0.00 0.00 0.00 69 1005.6
20260904064535 45 286 5.2 14.8 0.00 0.00 0.00 68 1005.5
20260904063040 45 153 5.2 13.9 0.00 0.00 0.00 69 1005.4
20260904061536 44 263 1.7 12.2 0.00 0.00 0.00 69 1005.5
20260904060105 44 267 3.5 11.3 0.00 0.00 0.00 70 1005.4
20260904054534 45 232 3.5 9.6 0.00 0.00 0.00 72 1005.3
20260904053107 45 280 3.5 13.0 0.00 0.00 0.00 73 1005.4
20260904051529 45 227 2.6 8.7 0.00 0.00 0.00 73 1005.4
20260904050033 46 300 5.2 13.9 0.00 0.00 0.00 71 1005.4
20260904044525 46 214 7.0 18.2 0.00 0.00 0.00 70 1005.5
20260904043024 46 244 7.0 21.7 0.00 0.00 0.00 69 1005.5
20260904041527 46 290 3.5 11.3 0.00 0.00 0.00 71 1005.5
20260904040024 46 255 4.3 10.4 0.00 0.00 0.00 70 1005.4
20260904034522 46 277 2.6 16.5 0.00 0.00 0.00 69 1005.2
20260904033021 47 12 5.2 14.8 0.00 0.00 0.00 68 1005.0
20260904031518 47 296 3.5 13.0 0.00 0.00 0.00 68 1004.9
20260904030017 48 199 2.6 13.0 0.00 0.00 0.00 66 1005.0
20260904024517 48 227 1.7 13.9 0.00 0.00 0.00 64 1005.0
20260904023016 49 248 4.3 11.3 0.00 0.00 0.00 62 1005.0
20260904021521 49 273 3.5 8.7 0.00 0.00 0.00 60 1005.0
20260904020014 50 248 2.6 7.8 0.00 0.00 0.00 59 1005.0